{"data":{"norad_id":41184,"epoch":"2026-09-20T03:04:55.117344Z","epoch_age_seconds":46527,"freshness":"FRESH","line1":"1 41184U 15081F   26263.12841571  .00000313  00000+0  10235-3 0  9991","line2":"2 41184  46.9984 181.2640 0003486 288.3361  71.7146 14.58962078572813","mean_motion":14.58962078,"eccentricity":0.0003486,"inclination_deg":46.9984,"raan_deg":181.264,"arg_perigee_deg":288.3361,"mean_anomaly_deg":71.7146,"bstar":0.00010235,"rev_number":57281,"period_min":98.700303572935,"perigee_km":694.06110312935,"apogee_km":698.993559101,"semimajor_km":7074.6643311152,"source":"CELESTRAK","updated_at":"2026-09-20T09:00:44.910809Z"}}